Home   Weather   Weston   Past weeks
Flag for USA

Past Weather in Weston, Connecticut, USA — Yesterday and Last 2 Weeks

Now
87 °F

Sunny.


Feels Like: 93 °F
Forecast: 95 / 75 °F
Wind: 6 mph from North

Location: Danbury Municipal Airport

Current Time: Jul 21, 2019 at 11:23:16 am

Latest Report: Jul 21, 2019 at 10:53 am


Visibility: 10 mi

Pressure: 29.80 "Hg

Humidity: 59%

Dew Point: 71 °F

Location of WestonLocation

Past Weather in Weston — Graph

°F

Weston Temperature Yesterday

Maximum temperature yesterday: 93 °F (at 3:53 pm)
Minimum temperature yesterday: 75 °F (at 5:53 am)
Average temperature yesterday: 85 °F

High & Low Weather Summary for the Past Weeks

 TemperatureHumidityPressure
High93 °F (Jul 20, 3:53 pm)100% (Jul 18, 6:14 am)30.10 "Hg (Jul 18, 6:14 am)
Low58 °F (Jul 10, 3:53 am)31% (Jul 9, 4:53 pm)29.70 "Hg (Jul 12, 5:53 am)
Average75 °F74%29.93 "Hg
* Reported Jul 6 10:00 am — Jul 21 9:53 am, Weston. Weather by CustomWeather, © 2019

Note: Actual official high and low records may vary slightly from our data, if they occured in-between our weather recording intervals... More about our weather records

Advertising

Weston Weather History for the Previous 24 Hours

Scroll right to see more
 ConditionsComfort  
Time TempWeatherWind HumidityBarometerVisibility
9:53 am
Sun, Jul 21
84 °FSunny.5 mph67%29.81 "Hg10 mi
8:53 am84 °FSunny.6 mph67%29.82 "Hg10 mi
7:53 am82 °FSunny.8 mph74%29.82 "Hg10 mi
6:53 am77 °FSunny.3 mph85%29.80 "Hg10 mi
5:53 am74 °FSunny.No wind91%29.76 "Hg9 mi
4:53 am74 °FClear.No wind94%29.77 "Hg10 mi
3:53 am75 °FClear.No wind88%29.77 "Hg10 mi
2:53 am76 °FClear.No wind85%29.78 "Hg10 mi
1:53 am76 °FClear.No wind85%29.78 "Hg10 mi
12:53 am77 °FClear.3 mph82%29.80 "Hg10 mi
11:53 pm
Sat, Jul 20
77 °FClear.3 mph88%29.80 "Hg10 mi
10:53 pm80 °FClear.5 mph79%29.81 "Hg10 mi
9:53 pm84 °FClear.5 mph67%29.82 "Hg10 mi
8:53 pm85 °FClear.5 mph70%29.81 "Hg10 mi
7:53 pm87 °FSunny.6 mph65%29.81 "Hg10 mi
6:53 pm90 °FSunny.7 mph59%29.79 "Hg10 mi
5:53 pm91 °FSunny.12 mph57%29.78 "Hg10 mi
4:53 pm93 °FSunny.12 mph56%29.78 "Hg10 mi
3:53 pm93 °FSunny.10 mph52%29.79 "Hg10 mi
2:53 pm92 °FSunny.9 mph58%29.81 "Hg10 mi
1:53 pm91 °FPassing clouds.7 mph60%29.82 "Hg10 mi
12:53 pm91 °FSunny.12 mph57%29.84 "Hg10 mi
11:53 am89 °FSunny.6 mph61%29.85 "Hg10 mi
Weather by CustomWeather, © 2019

See weather overview